Weather in Khorosheye

Russia / Novosibirsk Oblast     53°35′16″N   78°29′56″E
temp.,
°C
wind,
m/s
gust,
m/s
humid.,
%
clouds,
%
prec.,
mm/h
press.,
hPa
HPBL,
m
25 october, mon
mon2501:00+9ssw5117790 0.0 1021256
04:00+8ssw61371100 0.0 1019329
07:00+7ssw61457100 0.0 1018346
10:00+8sw71549100 0.0 1018444
13:00+11sw81237100 0.0 1017639
16:00+13sw61133100 0.0 1017835
19:00+10sw3543100 0.0 101778
22:00+8sw3348100 0.0 101836
26 october, tue
tue2601:00+8ssw3448100 0.0 101672
04:00+8s4851100 0.0 1014164
07:00+8s51153100 0.0 1011233
10:00+8s61448100 0.0 1008351
13:00+12sw81337100 0.0 1006709
16:00+12w71142100 0.0 10061164
19:00+6wnw81178100 0.3 1011884
22:00+5wnw81256100 0.0 10151344
27 october, wed
wed2701:00+2wnw6106345 0.0 1020866
04:000wnw48641 0.0 1023439
07:00−2w357248 0.0 1026119
10:00−1w35654 0.0 1027277
13:00+2wsw46425 0.0 1027852
16:00+3wsw563425 0.0 10261084
19:00+1wsw354361 0.0 102797
22:000sw364973 0.0 1027113
28 october, thu
thu2801:00−1sw365167 0.0 1028100
04:00−1sw3551100 0.0 1027107
07:00−1ssw3649100 0.0 1027134
10:000ssw48465 0.0 1027257
13:00+4ssw683336 0.0 1026696
16:00+6ssw68318 0.0 1024981
19:00+4s41043100 0.0 1023259
22:00+3s61451100 0.0 1022406
29 october, fri
fri2901:00+3ssw71557100 0.0 1020439
04:00+3ssw71452100 0.0 1018423
07:00+3ssw71441100 0.0 1017523
10:00+4sw814385 0.0 1017665
13:00+6wsw9123580 0.0 1018943
16:00+7sw81238100 0.0 10181077
19:00+6sw71344100 0.0 1019710
22:00+5sw71447100 0.0 1019625